When you browse on this site, cookies collect data to enhance your experience and personalize the content and advertising you see.
Visit our Privacy Policy to learn more. By continuing to use the site, you agree to this use of cookies and data.
  • In Hungary
  • List of Countries
  • For 7 days
  • Water Temperature
  • Satellite Maps
  • Weather Map
  • News
  • Weather Widgets
  • user-avatar
    Login

    Hourly Weather Changanacheri

    Today, 21 November, Wednesday

    Time Temperature Precipitation Wind Pressure Humidity
    00:00 +27°C° 1 mm 1 mps 757 mmHg 93%
    01:00 +26°C° 1 mm 1 mps 757 mmHg 93%
    02:00 +26°C° 1 mm 1 mps 757 mmHg 94%
    03:00 +26°C° 0.8 mm 1 mps 757 mmHg 94%
    04:00 +26°C° 0.8 mm 1 mps 757 mmHg 94%
    05:00 +26°C° 0 mm 1 mps 757 mmHg 95%
    06:00 +27°C° 0.1 mm 1 mps 757 mmHg 91%
    07:00 +28°C° 0.1 mm 1 mps 757 mmHg 88%
    08:00 +29°C° 0.1 mm 1 mps 757 mmHg 85%
    09:00 +30°C° 0.1 mm 2 mps 757 mmHg 78%
    10:00 +31°C° 0.1 mm 2 mps 757 mmHg 72%
    11:00 +34°C° 0 mm 2 mps 757 mmHg 62%
    12:00 +34°C° 0.2 mm 3 mps 756 mmHg 64%
    13:00 +34°C° 0.2 mm 3 mps 755 mmHg 66%
    14:00 +33°C° 0.2 mm 3 mps 755 mmHg 67%
    15:00 +31°C° 0.8 mm 3 mps 755 mmHg 74%
    16:00 +30°C° 0.8 mm 2 mps 755 mmHg 81%
    17:00 +29°C° 0 mm 2 mps 755 mmHg 88%
    18:00 +28°C° 0.9 mm 2 mps 755 mmHg 90%
    19:00 +28°C° 0.9 mm 1 mps 756 mmHg 91%
    20:00 +27°C° 0.9 mm 1 mps 756 mmHg 92%
    21:00 +27°C° 0.5 mm 1 mps 756 mmHg 92%
    22:00 +27°C° 0.5 mm 1 mps 756 mmHg 92%
    23:00 +27°C° 0.5 mm 1 mps 756 mmHg 92%

    Tomorrow, 22 November, Thursday

    Time Temperature Precipitation Wind Pressure Humidity
    00:00 +26°C° 0.2 mm 1 mps 756 mmHg 93%
    01:00 +26°C° 0.2 mm 1 mps 756 mmHg 93%
    02:00 +26°C° 0.2 mm 1 mps 755 mmHg 94%
    03:00 +26°C° 0.1 mm 1 mps 755 mmHg 94%
    04:00 +26°C° 0.1 mm 1 mps 756 mmHg 95%
    05:00 +26°C° 0.1 mm 1 mps 756 mmHg 95%
    06:00 +27°C° 0 mm 1 mps 756 mmHg 91%
    07:00 +28°C° 0 mm 1 mps 756 mmHg 87%
    08:00 +29°C° 0 mm 1 mps 757 mmHg 82%
    09:00 +31°C° 0.2 mm 1 mps 757 mmHg 75%
    10:00 +33°C° 0.2 mm 1 mps 757 mmHg 67%
    11:00 +35°C° 0.2 mm 2 mps 756 mmHg 59%
    12:00 +35°C° 0.6 mm 2 mps 756 mmHg 63%
    13:00 +34°C° 0.6 mm 2 mps 755 mmHg 66%
    14:00 +34°C° 0.6 mm 2 mps 754 mmHg 70%
    15:00 +32°C° 1 mm 2 mps 754 mmHg 75%
    16:00 +30°C° 1 mm 2 mps 755 mmHg 81%
    17:00 +29°C° 1 mm 1 mps 755 mmHg 87%
    18:00 +29°C° 0.3 mm 1 mps 755 mmHg 89%
    19:00 +28°C° 0.3 mm 1 mps 756 mmHg 90%
    20:00 +28°C° 0.3 mm 1 mps 757 mmHg 91%
    21:00 +28°C° 0.5 mm 2 mps 757 mmHg 91%
    22:00 +27°C° 0.5 mm 2 mps 757 mmHg 91%
    23:00 +27°C° 0.5 mm 2 mps 757 mmHg 92%

    Day after tomorrow, 23 November, Friday

    Time Temperature Precipitation Wind Pressure Humidity
    00:00 +27°C° 1.4 mm 2 mps 757 mmHg 92%
    01:00 +27°C° 1.4 mm 2 mps 757 mmHg 92%
    02:00 +27°C° 1.4 mm 2 mps 756 mmHg 91%
    03:00 +27°C° 0.4 mm 2 mps 756 mmHg 91%
    04:00 +26°C° 0.4 mm 2 mps 756 mmHg 91%
    05:00 +26°C° 0.4 mm 2 mps 757 mmHg 91%
    06:00 +27°C° 0.3 mm 2 mps 757 mmHg 87%
    07:00 +28°C° 0.3 mm 2 mps 758 mmHg 83%
    08:00 +29°C° 0.3 mm 2 mps 759 mmHg 79%
    09:00 +31°C° 0 mm 2 mps 758 mmHg 71%
    10:00 +34°C° 0 mm 2 mps 758 mmHg 63%
    11:00 +35°C° 0 mm 1 mps 758 mmHg 54%
    12:00 +35°C° 0.9 mm 2 mps 757 mmHg 61%
    13:00 +34°C° 0.9 mm 2 mps 757 mmHg 68%
    14:00 +33°C° 0.9 mm 3 mps 756 mmHg 75%
    15:00 +31°C° 1.6 mm 2 mps 756 mmHg 80%
    16:00 +30°C° 1.6 mm 2 mps 756 mmHg 85%
    17:00 +29°C° 1.6 mm 2 mps 756 mmHg 90%
    18:00 +28°C° 0.6 mm 1 mps 757 mmHg 91%
    19:00 +28°C° 0.6 mm 1 mps 757 mmHg 91%
    20:00 +28°C° 0.6 mm 1 mps 758 mmHg 92%
    21:00 +27°C° 0.1 mm 1 mps 758 mmHg 92%
    22:00 +27°C° 0.1 mm 1 mps 758 mmHg 93%
    23:00 +27°C° 0.1 mm 1 mps 758 mmHg 93%

    24 November, Saturday

    Time Temperature Precipitation Wind Pressure Humidity
    00:00 +27°C° 0.4 mm 1 mps 758 mmHg 93%
    01:00 +26°C° 0.4 mm 1 mps 758 mmHg 93%
    02:00 +26°C° 0.4 mm 1 mps 757 mmHg 93%
    03:00 +26°C° 0.4 mm 1 mps 757 mmHg 93%
    04:00 +26°C° 0.4 mm 1 mps 757 mmHg 92%
    05:00 +26°C° 0.4 mm 1 mps 757 mmHg 92%
    06:00 +27°C° 0.1 mm 1 mps 758 mmHg 88%
    07:00 +28°C° 0.1 mm 1 mps 759 mmHg 84%
    08:00 +29°C° 0.1 mm 1 mps 760 mmHg 80%
    09:00 +31°C° 0 mm 1 mps 759 mmHg 72%
    10:00 +33°C° 0 mm 1 mps 759 mmHg 63%
    11:00 +35°C° 0 mm 1 mps 759 mmHg 55%
    12:00 +34°C° 1.2 mm 1 mps 758 mmHg 61%
    13:00 +34°C° 1.2 mm 2 mps 757 mmHg 68%
    14:00 +32°C° 1.2 mm 2 mps 756 mmHg 74%
    15:00 +31°C° 1.9 mm 2 mps 756 mmHg 79%
    16:00 +30°C° 1.9 mm 2 mps 757 mmHg 84%
    17:00 +29°C° 1.9 mm 2 mps 757 mmHg 89%
    18:00 +28°C° 0.9 mm 1 mps 757 mmHg 90%
    19:00 +28°C° 0.9 mm 1 mps 758 mmHg 90%
    20:00 +27°C° 0.9 mm 1 mps 759 mmHg 91%
    21:00 +27°C° 0.3 mm 1 mps 759 mmHg 91%
    22:00 +27°C° 0.3 mm 1 mps 759 mmHg 92%
    23:00 +26°C° 0.3 mm 1 mps 759 mmHg 92%

    25 November, Sunday

    Time Temperature Precipitation Wind Pressure Humidity
    00:00 +26°C° 0.3 mm 1 mps 758 mmHg 93%
    01:00 +26°C° 0.3 mm 1 mps 758 mmHg 93%
    02:00 +26°C° 0.3 mm 1 mps 757 mmHg 93%
    03:00 +26°C° 0.2 mm 1 mps 757 mmHg 93%
    04:00 +26°C° 0.2 mm 1 mps 757 mmHg 93%
    05:00 +25°C° 0.2 mm 1 mps 757 mmHg 93%
    06:00 +27°C° 0 mm 1 mps 758 mmHg 88%
    07:00 +28°C° 0 mm 1 mps 759 mmHg 83%
    08:00 +29°C° 0 mm 1 mps 759 mmHg 78%
    09:00 +31°C° 0 mm 1 mps 759 mmHg 69%
    10:00 +33°C° 0 mm 1 mps 759 mmHg 60%
    11:00 +35°C° 0 mm 1 mps 759 mmHg 51%
    12:00 +35°C° 0 mm 1 mps 758 mmHg 53%
    13:00 +35°C° 0 mm 2 mps 757 mmHg 56%
    14:00 +35°C° 0 mm 2 mps 756 mmHg 58%
    15:00 +32°C° 0.5 mm 2 mps 756 mmHg 67%
    16:00 +31°C° 0.5 mm 2 mps 756 mmHg 75%
    17:00 +29°C° 0.5 mm 2 mps 756 mmHg 84%
    18:00 +29°C° 0.3 mm 1 mps 757 mmHg 86%
    19:00 +28°C° 0.3 mm 1 mps 757 mmHg 88%
    20:00 +27°C° 0.3 mm 1 mps 758 mmHg 89%
    21:00 +27°C° 0.1 mm 1 mps 758 mmHg 90%
    22:00 +27°C° 0.1 mm 1 mps 758 mmHg 91%
    23:00 +27°C° 0.1 mm 1 mps 758 mmHg 91%

    26 November, Monday

    Time Temperature Precipitation Wind Pressure Humidity
    00:00 +26°C° 0 mm 1 mps 757 mmHg 92%
    01:00 +26°C° 0 mm 1 mps 757 mmHg 92%
    02:00 +26°C° 0 mm 1 mps 756 mmHg 93%
    03:00 +26°C° 0 mm 1 mps 756 mmHg 93%
    04:00 +26°C° 0 mm 1 mps 756 mmHg 93%
    05:00 +26°C° 0 mm 1 mps 756 mmHg 93%
    06:00 +27°C° 0 mm 1 mps 757 mmHg 89%
    07:00 +28°C° 0 mm 1 mps 758 mmHg 84%
    08:00 +29°C° 0 mm 1 mps 758 mmHg 80%
    09:00 +31°C° 0 mm 1 mps 758 mmHg 72%
    10:00 +33°C° 0 mm 1 mps 758 mmHg 64%
    11:00 +35°C° 0 mm 1 mps 757 mmHg 56%
    12:00 +34°C° 0.2 mm 1 mps 756 mmHg 59%
    13:00 +34°C° 0.2 mm 2 mps 755 mmHg 62%
    14:00 +34°C° 0.2 mm 2 mps 755 mmHg 65%
    15:00 +32°C° 0.6 mm 2 mps 755 mmHg 72%
    16:00 +31°C° 0.6 mm 2 mps 755 mmHg 78%
    17:00 +29°C° 0.6 mm 1 mps 755 mmHg 85%
    18:00 +29°C° 0.1 mm 1 mps 756 mmHg 87%
    19:00 +28°C° 0.1 mm 1 mps 756 mmHg 89%
    20:00 +27°C° 0.1 mm 1 mps 757 mmHg 90%
    21:00 +27°C° 0.1 mm 1 mps 757 mmHg 91%
    22:00 +27°C° 0.1 mm 1 mps 757 mmHg 92%
    23:00 +27°C° 0.1 mm 1 mps 756 mmHg 93%
    Show more